| time (UTC) | temp C | wind direction | speed KPH | gust KPH | rain 1hr cm | rain 24hr cm | rain mn cm | humidity % | barometer mb |
| 20260504191002 | 18 | 110 | 11.3 | 20.9 | 0.00 | 0.00 | 0.00 | 30 | 1009.8 |
| 20260504190703 | 18 | 109 | 11.3 | 20.9 | 0.00 | 0.00 | 0.00 | 31 | 1009.8 |
| 20260504190602 | 18 | 109 | 11.3 | 20.9 | 0.00 | 0.00 | 0.00 | 31 | 1009.9 |
| 20260504190303 | 19 | 98 | 12.9 | 20.9 | 0.00 | 0.00 | 0.00 | 30 | 1009.9 |
| 20260504190003 | 18 | 88 | 12.9 | 19.3 | 0.00 | 0.00 | 0.00 | 30 | 1010.0 |
| 20260504185502 | 18 | 79 | 11.3 | 22.5 | 0.00 | 0.00 | 0.00 | 30 | 1010.1 |
| 20260504185103 | 18 | 78 | 6.4 | 29.0 | 0.00 | 0.00 | 0.00 | 31 | 1010.0 |
| 20260504184202 | 18 | 47 | 3.2 | 20.9 | 0.00 | 0.00 | 0.00 | 30 | 1010.1 |
| 20260504184002 | 18 | 302 | 4.8 | 8.0 | 0.00 | 0.00 | 0.00 | 32 | 1010.0 |
| 20260504183802 | 18 | 297 | 4.8 | 8.0 | 0.00 | 0.00 | 0.00 | 31 | 1010.1 |
| 20260504183703 | 18 | 292 | 6.4 | 12.9 | 0.00 | 0.00 | 0.00 | 31 | 1010.2 |
| 20260504183602 | 18 | 292 | 6.4 | 12.9 | 0.00 | 0.00 | 0.00 | 31 | 1010.1 |
| 20260504183402 | 18 | 278 | 8.0 | 16.1 | 0.00 | 0.00 | 0.00 | 31 | 1010.1 |
| 20260504183203 | 18 | 274 | 9.7 | 16.1 | 0.00 | 0.00 | 0.00 | 32 | 1010.2 |
| 20260504182602 | 17 | 255 | 12.9 | 22.5 | 0.00 | 0.00 | 0.00 | 33 | 1010.3 |
| 20260504182402 | 17 | 253 | 14.5 | 22.5 | 0.00 | 0.00 | 0.00 | 32 | 1010.4 |
| 20260504182103 | 17 | 243 | 12.9 | 22.5 | 0.00 | 0.00 | 0.00 | 31 | 1010.4 |
| 20260504181202 | 18 | 170 | 14.5 | 22.5 | 0.00 | 0.00 | 0.00 | 33 | 1010.6 |
| 20260504181102 | 17 | 159 | 14.5 | 22.5 | 0.00 | 0.00 | 0.00 | 33 | 1010.6 |
| 20260504181002 | 17 | 150 | 14.5 | 22.5 | 0.00 | 0.00 | 0.00 | 33 | 1010.6 |
| 20260504180802 | 17 | 141 | 12.9 | 22.5 | 0.00 | 0.00 | 0.00 | 33 | 1010.7 |
| 20260504180702 | 17 | 134 | 12.9 | 22.5 | 0.00 | 0.00 | 0.00 | 33 | 1010.7 |
| 20260504180503 | 17 | 125 | 11.3 | 30.6 | 0.00 | 0.00 | 0.00 | 34 | 1010.7 |
| 20260504175803 | 17 | 121 | 8.0 | 30.6 | 0.00 | 0.00 | 0.00 | 34 | 1010.8 |
| 20260504174702 | 16 | 269 | 11.3 | 22.5 | 0.00 | 0.00 | 0.00 | 37 | 1011.0 |
| 20260504174603 | 16 | 268 | 11.3 | 22.5 | 0.00 | 0.00 | 0.00 | 37 | 1011.0 |
| 20260504174002 | 16 | 260 | 9.7 | 24.1 | 0.00 | 0.00 | 0.00 | 37 | 1011.0 |
| 20260504173702 | 17 | 248 | 9.7 | 24.1 | 0.00 | 0.00 | 0.00 | 35 | 1011.1 |
| 20260504173602 | 17 | 243 | 9.7 | 24.1 | 0.00 | 0.00 | 0.00 | 35 | 1011.1 |
| 20260504172602 | 17 | 257 | 4.8 | 22.5 | 0.00 | 0.00 | 0.00 | 35 | 1011.3 |
| 20260504172002 | 17 | 150 | 6.4 | 14.5 | 0.00 | 0.00 | 0.00 | 36 | 1011.4 |
| 20260504171003 | 16 | 149 | 9.7 | 19.3 | 0.00 | 0.00 | 0.00 | 38 | 1011.4 |
| 20260504170603 | 16 | 155 | 9.7 | 17.7 | 0.00 | 0.00 | 0.00 | 37 | 1011.3 |
| 20260504170303 | 16 | 172 | 9.7 | 17.7 | 0.00 | 0.00 | 0.00 | 38 | 1011.3 |
| 20260504160402 | 15 | 135 | 3.2 | 9.7 | 0.00 | 0.00 | 0.00 | 33 | 1012.0 |
| 20260504150702 | 13 | 90 | 1.6 | 6.4 | 0.00 | 0.00 | 0.00 | 38 | 1011.9 |
| 20260504141002 | 12 | 0 | 0.0 | 0.0 | 0.00 | 0.00 | 0.00 | 42 | 1012.2 |
| 20260504140902 | 12 | 0 | 0.0 | 0.0 | 0.00 | 0.00 | 0.00 | 42 | 1012.2 |
| 20260504130802 | 10 | 0 | 0.0 | 3.2 | 0.00 | 0.00 | 0.00 | 44 | 1011.9 |
| 20260504130702 | 10 | 0 | 0.0 | 0.0 | 0.00 | 0.00 | 0.00 | 45 | 1012.0 |
| 20260504130603 | 10 | 0 | 0.0 | 0.0 | 0.00 | 0.00 | 0.00 | 45 | 1012.0 |
| 20260504130502 | 10 | 0 | 0.0 | 0.0 | 0.00 | 0.00 | 0.00 | 45 | 1012.0 |
| 20260504130402 | 10 | 0 | 0.0 | 0.0 | 0.00 | 0.00 | 0.00 | 45 | 1012.0 |
| 20260504130303 | 10 | 0 | 0.0 | 0.0 | 0.00 | 0.00 | 0.00 | 46 | 1012.0 |
| 20260504130202 | 10 | 0 | 0.0 | 0.0 | 0.00 | 0.00 | 0.00 | 44 | 1011.9 |
| 20260504120302 | 10 | 302 | 0.0 | 6.4 | 0.00 | 0.00 | 0.00 | 39 | 1011.0 |
| 20260504120202 | 10 | 0 | 0.0 | 6.4 | 0.00 | 0.00 | 0.00 | 39 | 1011.0 |
| 20260504110703 | 11 | 110 | 3.2 | 9.7 | 0.00 | 0.00 | 0.00 | 36 | 1011.3 |
| 20260504110602 | 11 | 109 | 3.2 | 9.7 | 0.00 | 0.00 | 0.00 | 36 | 1011.2 |
| 20260504110502 | 11 | 108 | 3.2 | 9.7 | 0.00 | 0.00 | 0.00 | 36 | 1011.1 |
| 20260504110403 | 11 | 108 | 1.6 | 9.7 | 0.00 | 0.00 | 0.00 | 35 | 1011.1 |
| 20260504110302 | 11 | 108 | 1.6 | 9.7 | 0.00 | 0.00 | 0.00 | 35 | 1011.2 |
| 20260504110203 | 11 | 108 | 1.6 | 9.7 | 0.00 | 0.00 | 0.00 | 35 | 1011.1 |
| 20260504100603 | 13 | 230 | 9.7 | 11.3 | 0.00 | 0.00 | 0.00 | 29 | 1010.7 |
| 20260504100503 | 13 | 232 | 9.7 | 11.3 | 0.00 | 0.00 | 0.00 | 29 | 1010.7 |
| 20260504100402 | 13 | 233 | 9.7 | 11.3 | 0.00 | 0.00 | 0.00 | 29 | 1010.7 |
| 20260504100303 | 13 | 235 | 9.7 | 11.3 | 0.00 | 0.00 | 0.00 | 29 | 1010.7 |
| 20260504100202 | 13 | 237 | 9.7 | 11.3 | 0.00 | 0.00 | 0.00 | 28 | 1010.6 |
| 20260504082003 | 12 | 256 | 4.8 | 8.0 | 0.00 | 0.00 | 0.00 | 36 | 1010.3 |
| 20260504081902 | 12 | 255 | 4.8 | 8.0 | 0.00 | 0.00 | 0.00 | 35 | 1010.4 |
| 20260504081702 | 11 | 248 | 4.8 | 8.0 | 0.00 | 0.00 | 0.00 | 32 | 1010.3 |
| 20260504081602 | 11 | 247 | 4.8 | 8.0 | 0.00 | 0.00 | 0.00 | 33 | 1010.3 |
| 20260504081503 | 11 | 246 | 4.8 | 8.0 | 0.00 | 0.00 | 0.00 | 34 | 1010.4 |
| 20260504081402 | 11 | 245 | 4.8 | 8.0 | 0.00 | 0.00 | 0.00 | 34 | 1010.5 |
| 20260504081302 | 11 | 242 | 4.8 | 8.0 | 0.00 | 0.00 | 0.00 | 36 | 1010.5 |
| 20260504081203 | 11 | 241 | 3.2 | 8.0 | 0.00 | 0.00 | 0.00 | 37 | 1010.4 |
| 20260504081002 | 10 | 246 | 3.2 | 9.7 | 0.00 | 0.00 | 0.00 | 37 | 1010.4 |
| 20260504080903 | 10 | 248 | 3.2 | 9.7 | 0.00 | 0.00 | 0.00 | 37 | 1010.5 |
| 20260504080802 | 10 | 252 | 3.2 | 9.7 | 0.00 | 0.00 | 0.00 | 38 | 1010.5 |
| 20260504080702 | 10 | 256 | 3.2 | 9.7 | 0.00 | 0.00 | 0.00 | 39 | 1010.5 |
| 20260504080603 | 10 | 258 | 1.6 | 9.7 | 0.00 | 0.00 | 0.00 | 38 | 1010.5 |
| 20260504080502 | 10 | 261 | 1.6 | 9.7 | 0.00 | 0.00 | 0.00 | 38 | 1010.5 |
| 20260504080403 | 10 | 263 | 1.6 | 9.7 | 0.00 | 0.00 | 0.00 | 38 | 1010.4 |
| 20260504080303 | 10 | 266 | 1.6 | 9.7 | 0.00 | 0.00 | 0.00 | 37 | 1010.5 |
| 20260504080202 | 10 | 270 | 1.6 | 9.7 | 0.00 | 0.00 | 0.00 | 38 | 1010.5 |
| 20260504070302 | 12 | 216 | 1.6 | 6.4 | 0.00 | 0.00 | 0.00 | 34 | 1011.0 |
| 20260504070202 | 12 | 216 | 1.6 | 6.4 | 0.00 | 0.00 | 0.00 | 34 | 1011.0 |
| 20260504050703 | 12 | 242 | 1.6 | 3.2 | 0.00 | 0.00 | 0.00 | 31 | 1011.5 |
| 20260504050602 | 12 | 244 | 1.6 | 3.2 | 0.00 | 0.00 | 0.00 | 32 | 1011.5 |
| 20260504050503 | 12 | 246 | 1.6 | 3.2 | 0.00 | 0.00 | 0.00 | 32 | 1011.5 |
| 20260504050302 | 13 | 252 | 0.0 | 3.2 | 0.00 | 0.00 | 0.00 | 31 | 1011.6 |
| 20260504050203 | 13 | 254 | 0.0 | 3.2 | 0.00 | 0.00 | 0.00 | 30 | 1011.7 |
| 20260504050002 | 13 | 255 | 0.0 | 3.2 | 0.00 | 0.00 | 0.00 | 30 | 1011.3 |
| 20260504045903 | 13 | 256 | 0.0 | 3.2 | 0.00 | 0.00 | 0.00 | 30 | 1011.3 |
| 20260504045803 | 13 | 257 | 0.0 | 3.2 | 0.00 | 0.00 | 0.00 | 30 | 1011.3 |
| 20260504045702 | 13 | 259 | 1.6 | 3.2 | 0.00 | 0.00 | 0.00 | 30 | 1011.3 |
| 20260504045603 | 13 | 261 | 1.6 | 3.2 | 0.00 | 0.00 | 0.00 | 29 | 1011.3 |
| 20260504045503 | 13 | 264 | 1.6 | 1.6 | 0.00 | 0.00 | 0.00 | 30 | 1011.3 |
| 20260504045402 | 13 | 278 | 1.6 | 1.6 | 0.00 | 0.00 | 0.00 | 30 | 1011.3 |
| 20260504045304 | 13 | 256 | 1.6 | 3.2 | 0.00 | 0.00 | 0.00 | 30 | 1011.3 |
| 20260504045202 | 13 | 250 | 3.2 | 6.4 | 0.00 | 0.00 | 0.00 | 30 | 1011.3 |
| 20260504045102 | 13 | 252 | 3.2 | 8.0 | 0.00 | 0.00 | 0.00 | 30 | 1011.3 |
| 20260504045003 | 13 | 255 | 3.2 | 8.0 | 0.00 | 0.00 | 0.00 | 30 | 1011.3 |
| 20260504044902 | 13 | 254 | 3.2 | 8.0 | 0.00 | 0.00 | 0.00 | 30 | 1011.3 |
| 20260504044802 | 13 | 253 | 1.6 | 8.0 | 0.00 | 0.00 | 0.00 | 30 | 1011.4 |
| 20260504044703 | 13 | 253 | 1.6 | 8.0 | 0.00 | 0.00 | 0.00 | 30 | 1011.4 |
| 20260504044602 | 13 | 252 | 1.6 | 8.0 | 0.00 | 0.00 | 0.00 | 31 | 1011.4 |
| 20260504044502 | 13 | 252 | 1.6 | 8.0 | 0.00 | 0.00 | 0.00 | 31 | 1011.4 |
| 20260504044403 | 13 | 252 | 1.6 | 8.0 | 0.00 | 0.00 | 0.00 | 30 | 1011.4 |
| 20260504044303 | 13 | 253 | 1.6 | 8.0 | 0.00 | 0.00 | 0.00 | 30 | 1011.4 |
| 20260504044103 | 13 | 255 | 1.6 | 8.0 | 0.00 | 0.00 | 0.00 | 30 | 1011.4 |
| 20260504044002 | 13 | 257 | 1.6 | 8.0 | 0.00 | 0.00 | 0.00 | 30 | 1011.5 |
| 20260504043902 | 13 | 259 | 1.6 | 6.4 | 0.00 | 0.00 | 0.00 | 30 | 1011.5 |
| 20260504043803 | 13 | 261 | 1.6 | 6.4 | 0.00 | 0.00 | 0.00 | 29 | 1011.5 |
| 20260504043703 | 13 | 261 | 1.6 | 6.4 | 0.00 | 0.00 | 0.00 | 30 | 1011.5 |
| 20260504043503 | 13 | 258 | 1.6 | 6.4 | 0.00 | 0.00 | 0.00 | 30 | 1011.5 |
| 20260504043403 | 13 | 258 | 1.6 | 6.4 | 0.00 | 0.00 | 0.00 | 30 | 1011.5 |
| 20260504043302 | 13 | 258 | 1.6 | 6.4 | 0.00 | 0.00 | 0.00 | 30 | 1011.5 |
| 20260504043203 | 13 | 258 | 1.6 | 6.4 | 0.00 | 0.00 | 0.00 | 30 | 1011.5 |
| 20260504043103 | 13 | 256 | 3.2 | 6.4 | 0.00 | 0.00 | 0.00 | 29 | 1011.5 |
| 20260504043002 | 13 | 249 | 3.2 | 6.4 | 0.00 | 0.00 | 0.00 | 30 | 1011.5 |
| 20260504042903 | 13 | 244 | 3.2 | 6.4 | 0.00 | 0.00 | 0.00 | 30 | 1011.6 |
| 20260504042802 | 13 | 245 | 3.2 | 8.0 | 0.00 | 0.00 | 0.00 | 30 | 1011.5 |
| 20260504042702 | 13 | 247 | 3.2 | 8.0 | 0.00 | 0.00 | 0.00 | 30 | 1011.5 |
| 20260504042603 | 13 | 249 | 3.2 | 8.0 | 0.00 | 0.00 | 0.00 | 30 | 1011.5 |
| 20260504042502 | 13 | 249 | 3.2 | 8.0 | 0.00 | 0.00 | 0.00 | 31 | 1011.5 |
| 20260504042402 | 13 | 249 | 3.2 | 8.0 | 0.00 | 0.00 | 0.00 | 30 | 1011.5 |
| 20260504042304 | 13 | 249 | 3.2 | 8.0 | 0.00 | 0.00 | 0.00 | 31 | 1011.5 |
| 20260504042203 | 13 | 249 | 1.6 | 8.0 | 0.00 | 0.00 | 0.00 | 30 | 1011.5 |
| 20260504042003 | 13 | 252 | 1.6 | 8.0 | 0.00 | 0.00 | 0.00 | 30 | 1011.5 |
| 20260504041903 | 13 | 253 | 1.6 | 8.0 | 0.00 | 0.00 | 0.00 | 29 | 1011.4 |
| 20260504041802 | 13 | 254 | 1.6 | 6.4 | 0.00 | 0.00 | 0.00 | 29 | 1011.4 |
| 20260504041703 | 13 | 255 | 0.0 | 6.4 | 0.00 | 0.00 | 0.00 | 29 | 1011.5 |
| 20260504041603 | 13 | 255 | 0.0 | 6.4 | 0.00 | 0.00 | 0.00 | 29 | 1011.5 |
| 20260504041502 | 13 | 256 | 0.0 | 6.4 | 0.00 | 0.00 | 0.00 | 29 | 1011.5 |
| 20260504041403 | 13 | 258 | 0.0 | 3.2 | 0.00 | 0.00 | 0.00 | 29 | 1011.5 |
| 20260504041302 | 13 | 261 | 0.0 | 3.2 | 0.00 | 0.00 | 0.00 | 30 | 1011.5 |
| 20260504041202 | 13 | 0 | 0.0 | 3.2 | 0.00 | 0.00 | 0.00 | 29 | 1011.5 |
| 20260504041103 | 13 | 0 | 0.0 | 3.2 | 0.00 | 0.00 | 0.00 | 29 | 1011.5 |
| 20260504041003 | 13 | 0 | 0.0 | 3.2 | 0.00 | 0.00 | 0.00 | 29 | 1011.6 |
| 20260504040902 | 13 | 0 | 0.0 | 3.2 | 0.00 | 0.00 | 0.00 | 29 | 1011.5 |
| 20260504040803 | 13 | 260 | 0.0 | 3.2 | 0.00 | 0.00 | 0.00 | 29 | 1011.5 |
| 20260504040703 | 13 | 248 | 0.0 | 3.2 | 0.00 | 0.00 | 0.00 | 29 | 1011.5 |
| 20260504040602 | 13 | 246 | 0.0 | 3.2 | 0.00 | 0.00 | 0.00 | 29 | 1011.5 |
| 20260504040503 | 13 | 246 | 0.0 | 3.2 | 0.00 | 0.00 | 0.00 | 29 | 1011.5 |
| 20260504040403 | 13 | 246 | 0.0 | 3.2 | 0.00 | 0.00 | 0.00 | 29 | 1011.4 |
| 20260504040302 | 14 | 246 | 0.0 | 3.2 | 0.00 | 0.00 | 0.00 | 29 | 1011.5 |
| 20260504040203 | 14 | 246 | 1.6 | 3.2 | 0.00 | 0.00 | 0.00 | 30 | 1011.5 |
| 20260504040103 | 14 | 246 | 1.6 | 3.2 | 0.00 | 0.00 | 0.00 | 29 | 1011.5 |
| 20260504035902 | 14 | 247 | 1.6 | 3.2 | 0.00 | 0.00 | 0.00 | 29 | 1011.5 |
| 20260504035803 | 14 | 249 | 1.6 | 6.4 | 0.00 | 0.00 | 0.00 | 28 | 1011.5 |
| 20260504035702 | 14 | 252 | 3.2 | 6.4 | 0.00 | 0.00 | 0.00 | 28 | 1011.5 |
| 20260504035602 | 14 | 252 | 3.2 | 6.4 | 0.00 | 0.00 | 0.00 | 28 | 1011.5 |
| 20260504035503 | 14 | 252 | 3.2 | 6.4 | 0.00 | 0.00 | 0.00 | 28 | 1011.5 |
| 20260504035402 | 14 | 252 | 3.2 | 6.4 | 0.00 | 0.00 | 0.00 | 28 | 1011.5 |
| 20260504035304 | 14 | 253 | 3.2 | 6.4 | 0.00 | 0.00 | 0.00 | 28 | 1011.5 |
| 20260504035203 | 15 | 253 | 3.2 | 6.4 | 0.00 | 0.00 | 0.00 | 28 | 1011.5 |
| 20260504035102 | 15 | 253 | 3.2 | 6.4 | 0.00 | 0.00 | 0.00 | 29 | 1011.4 |
| 20260504035002 | 15 | 253 | 3.2 | 6.4 | 0.00 | 0.00 | 0.00 | 28 | 1011.4 |
| 20260504034903 | 15 | 253 | 3.2 | 6.4 | 0.00 | 0.00 | 0.00 | 27 | 1011.4 |
| 20260504034802 | 15 | 254 | 3.2 | 6.4 | 0.00 | 0.00 | 0.00 | 27 | 1011.4 |
| 20260504034702 | 15 | 256 | 3.2 | 6.4 | 0.00 | 0.00 | 0.00 | 27 | 1011.4 |
| 20260504034603 | 15 | 257 | 3.2 | 6.4 | 0.00 | 0.00 | 0.00 | 27 | 1011.4 |
| 20260504034502 | 15 | 258 | 3.2 | 6.4 | 0.00 | 0.00 | 0.00 | 27 | 1011.5 |
| 20260504034403 | 15 | 259 | 3.2 | 6.4 | 0.00 | 0.00 | 0.00 | 27 | 1011.4 |
| 20260504034303 | 15 | 259 | 3.2 | 6.4 | 0.00 | 0.00 | 0.00 | 27 | 1011.5 |
| 20260504034202 | 15 | 260 | 3.2 | 6.4 | 0.00 | 0.00 | 0.00 | 27 | 1011.5 |
| 20260504034103 | 15 | 260 | 3.2 | 6.4 | 0.00 | 0.00 | 0.00 | 27 | 1011.5 |
| 20260504034003 | 15 | 260 | 3.2 | 6.4 | 0.00 | 0.00 | 0.00 | 27 | 1011.5 |
| 20260504033902 | 15 | 261 | 3.2 | 8.0 | 0.00 | 0.00 | 0.00 | 27 | 1011.5 |
| 20260504033803 | 15 | 262 | 3.2 | 8.0 | 0.00 | 0.00 | 0.00 | 27 | 1011.5 |
| 20260504033703 | 15 | 261 | 1.6 | 8.0 | 0.00 | 0.00 | 0.00 | 27 | 1011.5 |
| 20260504033603 | 15 | 262 | 1.6 | 8.0 | 0.00 | 0.00 | 0.00 | 27 | 1011.5 |
| 20260504033503 | 15 | 262 | 1.6 | 8.0 | 0.00 | 0.00 | 0.00 | 27 | 1011.5 |
| 20260504033402 | 15 | 262 | 1.6 | 8.0 | 0.00 | 0.00 | 0.00 | 27 | 1011.5 |
| 20260504033303 | 15 | 261 | 1.6 | 8.0 | 0.00 | 0.00 | 0.00 | 27 | 1011.4 |
| 20260504033203 | 15 | 261 | 1.6 | 8.0 | 0.00 | 0.00 | 0.00 | 28 | 1011.4 |
| 20260504033003 | 15 | 261 | 1.6 | 8.0 | 0.00 | 0.00 | 0.00 | 28 | 1011.4 |
| 20260504032903 | 15 | 261 | 1.6 | 6.4 | 0.00 | 0.00 | 0.00 | 28 | 1011.4 |
| 20260504032802 | 15 | 255 | 1.6 | 4.8 | 0.00 | 0.00 | 0.00 | 29 | 1011.4 |
| 20260504032703 | 15 | 252 | 1.6 | 4.8 | 0.00 | 0.00 | 0.00 | 28 | 1011.4 |
| 20260504032603 | 15 | 251 | 1.6 | 3.2 | 0.00 | 0.00 | 0.00 | 28 | 1011.4 |
| 20260504032502 | 15 | 251 | 1.6 | 3.2 | 0.00 | 0.00 | 0.00 | 28 | 1011.4 |
| 20260504032403 | 15 | 251 | 1.6 | 3.2 | 0.00 | 0.00 | 0.00 | 28 | 1011.4 |
| 20260504032304 | 15 | 254 | 1.6 | 3.2 | 0.00 | 0.00 | 0.00 | 28 | 1011.4 |
| 20260504032202 | 15 | 256 | 1.6 | 6.4 | 0.00 | 0.00 | 0.00 | 27 | 1011.5 |
| 20260504032103 | 15 | 258 | 1.6 | 6.4 | 0.00 | 0.00 | 0.00 | 27 | 1011.5 |
| 20260504032003 | 15 | 258 | 1.6 | 6.4 | 0.00 | 0.00 | 0.00 | 28 | 1011.4 |
| 20260504031902 | 15 | 257 | 1.6 | 6.4 | 0.00 | 0.00 | 0.00 | 27 | 1011.4 |
| 20260504031803 | 15 | 258 | 1.6 | 6.4 | 0.00 | 0.00 | 0.00 | 27 | 1011.4 |
| 20260504031602 | 15 | 257 | 1.6 | 6.4 | 0.00 | 0.00 | 0.00 | 26 | 1011.4 |
| 20260504031503 | 15 | 256 | 3.2 | 6.4 | 0.00 | 0.00 | 0.00 | 27 | 1011.4 |
| 20260504031403 | 15 | 256 | 3.2 | 6.4 | 0.00 | 0.00 | 0.00 | 27 | 1011.4 |
| 20260504031302 | 15 | 256 | 3.2 | 6.4 | 0.00 | 0.00 | 0.00 | 27 | 1011.4 |
| 20260504031203 | 15 | 255 | 3.2 | 4.8 | 0.00 | 0.00 | 0.00 | 28 | 1011.4 |
| 20260504031103 | 15 | 254 | 4.8 | 4.8 | 0.00 | 0.00 | 0.00 | 27 | 1011.3 |
| 20260504031002 | 15 | 252 | 4.8 | 6.4 | 0.00 | 0.00 | 0.00 | 27 | 1011.4 |
| 20260504030903 | 15 | 253 | 4.8 | 6.4 | 0.00 | 0.00 | 0.00 | 27 | 1011.4 |
| 20260504030803 | 15 | 254 | 6.4 | 8.0 | 0.00 | 0.00 | 0.00 | 27 | 1011.4 |
| 20260504030702 | 15 | 253 | 6.4 | 8.0 | 0.00 | 0.00 | 0.00 | 27 | 1011.4 |
| 20260504030603 | 15 | 253 | 6.4 | 8.0 | 0.00 | 0.00 | 0.00 | 27 | 1011.3 |
| 20260504030502 | 15 | 253 | 6.4 | 8.0 | 0.00 | 0.00 | 0.00 | 27 | 1011.4 |
| 20260504030403 | 15 | 253 | 4.8 | 9.7 | 0.00 | 0.00 | 0.00 | 27 | 1011.3 |
| 20260504030303 | 15 | 252 | 4.8 | 9.7 | 0.00 | 0.00 | 0.00 | 27 | 1011.3 |
| 20260504030202 | 15 | 252 | 4.8 | 9.7 | 0.00 | 0.00 | 0.00 | 28 | 1011.3 |
| 20260504030003 | 15 | 251 | 3.2 | 9.7 | 0.00 | 0.00 | 0.00 | 28 | 1011.3 |
| 20260504025902 | 15 | 251 | 3.2 | 9.7 | 0.00 | 0.00 | 0.00 | 28 | 1011.3 |
| 20260504025703 | 15 | 249 | 3.2 | 9.7 | 0.00 | 0.00 | 0.00 | 28 | 1011.3 |
| 20260504025602 | 15 | 249 | 1.6 | 9.7 | 0.00 | 0.00 | 0.00 | 27 | 1011.3 |
| 20260504025503 | 15 | 249 | 1.6 | 9.7 | 0.00 | 0.00 | 0.00 | 27 | 1011.4 |
| 20260504025403 | 15 | 251 | 1.6 | 8.0 | 0.00 | 0.00 | 0.00 | 28 | 1011.3 |
| 20260504025304 | 15 | 253 | 1.6 | 8.0 | 0.00 | 0.00 | 0.00 | 27 | 1011.3 |
| 20260504025203 | 15 | 255 | 1.6 | 8.0 | 0.00 | 0.00 | 0.00 | 28 | 1011.3 |
| 20260504025103 | 15 | 259 | 1.6 | 6.4 | 0.00 | 0.00 | 0.00 | 26 | 1011.3 |
| 20260504025002 | 16 | 262 | 1.6 | 6.4 | 0.00 | 0.00 | 0.00 | 28 | 1011.2 |
| 20260504024903 | 16 | 267 | 1.6 | 3.2 | 0.00 | 0.00 | 0.00 | 26 | 1011.2 |
| 20260504024803 | 16 | 270 | 1.6 | 3.2 | 0.00 | 0.00 | 0.00 | 26 | 1011.2 |
| 20260504024703 | 16 | 270 | 1.6 | 3.2 | 0.00 | 0.00 | 0.00 | 26 | 1011.2 |
| 20260504024603 | 16 | 269 | 1.6 | 3.2 | 0.00 | 0.00 | 0.00 | 25 | 1011.2 |
| 20260504024502 | 16 | 269 | 1.6 | 3.2 | 0.00 | 0.00 | 0.00 | 24 | 1011.1 |
| 20260504024403 | 16 | 269 | 1.6 | 3.2 | 0.00 | 0.00 | 0.00 | 24 | 1011.2 |
| 20260504024303 | 16 | 268 | 1.6 | 3.2 | 0.00 | 0.00 | 0.00 | 24 | 1011.2 |
| 20260504024202 | 16 | 268 | 1.6 | 3.2 | 0.00 | 0.00 | 0.00 | 24 | 1011.2 |
| 20260504024103 | 16 | 268 | 1.6 | 3.2 | 0.00 | 0.00 | 0.00 | 24 | 1011.2 |
| 20260504024003 | 16 | 269 | 1.6 | 3.2 | 0.00 | 0.00 | 0.00 | 24 | 1011.2 |
| 20260504023902 | 16 | 269 | 1.6 | 3.2 | 0.00 | 0.00 | 0.00 | 24 | 1011.2 |
| 20260504023803 | 16 | 268 | 3.2 | 3.2 | 0.00 | 0.00 | 0.00 | 24 | 1011.2 |
| 20260504023602 | 16 | 270 | 3.2 | 6.4 | 0.00 | 0.00 | 0.00 | 23 | 1011.2 |
| 20260504023503 | 17 | 271 | 3.2 | 6.4 | 0.00 | 0.00 | 0.00 | 23 | 1011.1 |
| 20260504023403 | 17 | 272 | 3.2 | 6.4 | 0.00 | 0.00 | 0.00 | 23 | 1011.1 |
| 20260504023302 | 17 | 272 | 3.2 | 8.0 | 0.00 | 0.00 | 0.00 | 23 | 1011.1 |
| 20260504023203 | 17 | 273 | 3.2 | 8.0 | 0.00 | 0.00 | 0.00 | 23 | 1011.1 |
| 20260504023102 | 17 | 273 | 3.2 | 8.0 | 0.00 | 0.00 | 0.00 | 23 | 1011.2 |
| 20260504023003 | 17 | 273 | 1.6 | 8.0 | 0.00 | 0.00 | 0.00 | 23 | 1011.1 |
| 20260504022802 | 17 | 275 | 1.6 | 8.0 | 0.00 | 0.00 | 0.00 | 22 | 1011.1 |
| 20260504022702 | 17 | 275 | 1.6 | 8.0 | 0.00 | 0.00 | 0.00 | 23 | 1011.2 |
| 20260504022603 | 17 | 275 | 1.6 | 8.0 | 0.00 | 0.00 | 0.00 | 22 | 1011.1 |
| 20260504022502 | 17 | 276 | 1.6 | 8.0 | 0.00 | 0.00 | 0.00 | 23 | 1011.2 |
| 20260504022402 | 17 | 277 | 1.6 | 8.0 | 0.00 | 0.00 | 0.00 | 22 | 1011.1 |
| 20260504022304 | 17 | 283 | 1.6 | 8.0 | 0.00 | 0.00 | 0.00 | 22 | 1011.2 |
| 20260504022202 | 17 | 301 | 1.6 | 6.4 | 0.00 | 0.00 | 0.00 | 23 | 1011.2 |
| 20260504022103 | 17 | 76 | 1.6 | 4.8 | 0.00 | 0.00 | 0.00 | 23 | 1011.2 |
| 20260504022003 | 17 | 94 | 1.6 | 3.2 | 0.00 | 0.00 | 0.00 | 21 | 1011.1 |
| 20260504021902 | 17 | 98 | 3.2 | 3.2 | 0.00 | 0.00 | 0.00 | 21 | 1011.0 |
| 20260504021803 | 17 | 100 | 3.2 | 3.2 | 0.00 | 0.00 | 0.00 | 21 | 1011.0 |
| 20260504021703 | 17 | 98 | 3.2 | 3.2 | 0.00 | 0.00 | 0.00 | 21 | 1010.9 |
| 20260504021602 | 17 | 86 | 4.8 | 6.4 | 0.00 | 0.00 | 0.00 | 20 | 1011.0 |
| 20260504021503 | 17 | 71 | 4.8 | 8.0 | 0.00 | 0.00 | 0.00 | 21 | 1010.9 |
| 20260504021403 | 17 | 61 | 4.8 | 8.0 | 0.00 | 0.00 | 0.00 | 21 | 1011.0 |
| 20260504021303 | 17 | 53 | 4.8 | 8.0 | 0.00 | 0.00 | 0.00 | 21 | 1011.0 |
| 20260504021203 | 17 | 39 | 4.8 | 8.0 | 0.00 | 0.00 | 0.00 | 21 | 1010.9 |
| 20260504021003 | 18 | 5 | 6.4 | 9.7 | 0.00 | 0.00 | 0.00 | 21 | 1011.0 |
| 20260504020903 | 18 | 349 | 6.4 | 12.9 | 0.00 | 0.00 | 0.00 | 22 | 1011.1 |
| 20260504020802 | 18 | 342 | 6.4 | 12.9 | 0.00 | 0.00 | 0.00 | 21 | 1011.0 |
| 20260504020703 | 18 | 341 | 8.0 | 12.9 | 0.00 | 0.00 | 0.00 | 20 | 1011.0 |
| 20260504020603 | 18 | 340 | 8.0 | 12.9 | 0.00 | 0.00 | 0.00 | 19 | 1010.9 |
| 20260504020502 | 18 | 335 | 8.0 | 12.9 | 0.00 | 0.00 | 0.00 | 19 | 1010.9 |
| 20260504020403 | 18 | 331 | 8.0 | 12.9 | 0.00 | 0.00 | 0.00 | 19 | 1011.3 |
| 20260504020303 | 19 | 330 | 9.7 | 12.9 | 0.00 | 0.00 | 0.00 | 18 | 1011.3 |
| 20260504020202 | 19 | 331 | 9.7 | 12.9 | 0.00 | 0.00 | 0.00 | 18 | 1011.3 |
| 20260504020003 | 19 | 345 | 11.3 | 12.9 | 0.00 | 0.00 | 0.00 | 18 | 1011.0 |
| 20260504015902 | 19 | 354 | 11.3 | 12.9 | 0.00 | 0.00 | 0.00 | 19 | 1011.0 |
| 20260504015803 | 19 | 2 | 12.9 | 20.9 | 0.00 | 0.00 | 0.00 | 18 | 1011.0 |
| 20260504015703 | 19 | 8 | 12.9 | 32.2 | 0.00 | 0.00 | 0.00 | 18 | 1011.0 |
| 20260504015602 | 19 | 10 | 12.9 | 32.2 | 0.00 | 0.00 | 0.00 | 17 | 1011.0 |
| 20260504015503 | 19 | 10 | 11.3 | 32.2 | 0.00 | 0.00 | 0.00 | 17 | 1011.1 |
| 20260504015403 | 19 | 12 | 11.3 | 32.2 | 0.00 | 0.00 | 0.00 | 17 | 1011.1 |
| 20260504015304 | 19 | 10 | 11.3 | 32.2 | 0.00 | 0.00 | 0.00 | 18 | 1011.1 |
| 20260504015203 | 19 | 5 | 11.3 | 32.2 | 0.00 | 0.00 | 0.00 | 18 | 1011.1 |
| 20260504015103 | 19 | 355 | 9.7 | 40.2 | 0.00 | 0.00 | 0.00 | 17 | 1011.0 |
| 20260504015002 | 19 | 348 | 8.0 | 40.2 | 0.00 | 0.00 | 0.00 | 17 | 1011.0 |
| 20260504014903 | 18 | 344 | 6.4 | 40.2 | 0.00 | 0.00 | 0.00 | 18 | 1011.1 |
| 20260504014803 | 18 | 339 | 6.4 | 40.2 | 0.00 | 0.00 | 0.00 | 18 | 1011.1 |
| 20260504014702 | 18 | 333 | 4.8 | 40.2 | 0.00 | 0.00 | 0.00 | 19 | 1011.0 |
| 20260504014603 | 18 | 323 | 4.8 | 40.2 | 0.00 | 0.00 | 0.00 | 18 | 1011.1 |
| 20260504014503 | 18 | 319 | 3.2 | 40.2 | 0.00 | 0.00 | 0.00 | 18 | 1011.0 |
| 20260504014402 | 18 | 322 | 3.2 | 40.2 | 0.00 | 0.00 | 0.00 | 18 | 1011.0 |
| 20260504014303 | 18 | 326 | 3.2 | 40.2 | 0.00 | 0.00 | 0.00 | 19 | 1011.1 |
| 20260504014203 | 18 | 325 | 1.6 | 40.2 | 0.00 | 0.00 | 0.00 | 19 | 1011.2 |
| 20260504014102 | 18 | 323 | 1.6 | 19.3 | 0.00 | 0.00 | 0.00 | 20 | 1011.2 |
| 20260504014003 | 18 | 327 | 1.6 | 8.0 | 0.00 | 0.00 | 0.00 | 22 | 1011.4 |
| 20260504013902 | 18 | 332 | 1.6 | 6.4 | 0.00 | 0.00 | 0.00 | 23 | 1011.3 |
| 20260504013802 | 18 | 338 | 1.6 | 6.4 | 0.00 | 0.00 | 0.00 | 25 | 1011.5 |
| 20260504013703 | 18 | 334 | 1.6 | 6.4 | 0.00 | 0.00 | 0.00 | 21 | 1011.4 |
| 20260504013602 | 18 | 335 | 1.6 | 6.4 | 0.00 | 0.00 | 0.00 | 21 | 1011.4 |
| 20260504013403 | 18 | 317 | 1.6 | 6.4 | 0.00 | 0.00 | 0.00 | 21 | 1011.4 |
| 20260504013303 | 18 | 315 | 1.6 | 6.4 | 0.00 | 0.00 | 0.00 | 21 | 1011.4 |
| 20260504013202 | 18 | 314 | 1.6 | 6.4 | 0.00 | 0.00 | 0.00 | 21 | 1011.4 |
| 20260504013103 | 18 | 313 | 1.6 | 6.4 | 0.00 | 0.00 | 0.00 | 21 | 1011.4 |
| 20260504013003 | 18 | 303 | 1.6 | 3.2 | 0.00 | 0.00 | 0.00 | 23 | 1011.4 |
| 20260504012902 | 18 | 301 | 1.6 | 1.6 | 0.00 | 0.00 | 0.00 | 23 | 1011.3 |
| 20260504012802 | 18 | 307 | 1.6 | 1.6 | 0.00 | 0.00 | 0.00 | 22 | 1011.3 |
| 20260504012703 | 18 | 22 | 1.6 | 3.2 | 0.00 | 0.00 | 0.00 | 23 | 1011.4 |
| 20260504012602 | 18 | 45 | 3.2 | 3.2 | 0.00 | 0.00 | 0.00 | 22 | 1011.4 |
| 20260504012502 | 18 | 51 | 3.2 | 6.4 | 0.00 | 0.00 | 0.00 | 23 | 1011.4 |
| 20260504012403 | 18 | 50 | 3.2 | 8.0 | 0.00 | 0.00 | 0.00 | 22 | 1011.4 |
| 20260504012304 | 18 | 50 | 3.2 | 8.0 | 0.00 | 0.00 | 0.00 | 22 | 1011.4 |
| 20260504012103 | 18 | 48 | 4.8 | 8.0 | 0.00 | 0.00 | 0.00 | 23 | 1011.4 |
| 20260504012003 | 18 | 46 | 4.8 | 8.0 | 0.00 | 0.00 | 0.00 | 22 | 1011.4 |
| 20260504011902 | 18 | 43 | 4.8 | 8.0 | 0.00 | 0.00 | 0.00 | 22 | 1011.4 |
| 20260504011703 | 18 | 42 | 6.4 | 8.0 | 0.00 | 0.00 | 0.00 | 23 | 1011.4 |
| 20260504011603 | 18 | 41 | 6.4 | 9.7 | 0.00 | 0.00 | 0.00 | 23 | 1011.4 |
| 20260504011502 | 18 | 42 | 6.4 | 9.7 | 0.00 | 0.00 | 0.00 | 23 | 1011.4 |
| 20260504011403 | 18 | 42 | 6.4 | 9.7 | 0.00 | 0.00 | 0.00 | 23 | 1011.4 |
| 20260504011303 | 18 | 42 | 6.4 | 9.7 | 0.00 | 0.00 | 0.00 | 24 | 1011.4 |
| 20260504011102 | 18 | 44 | 8.0 | 9.7 | 0.00 | 0.00 | 0.00 | 24 | 1011.5 |
| 20260504011003 | 18 | 44 | 8.0 | 11.3 | 0.00 | 0.00 | 0.00 | 25 | 1011.5 |
| 20260504010802 | 18 | 45 | 8.0 | 14.5 | 0.00 | 0.00 | 0.00 | 24 | 1011.5 |
| 20260504010702 | 18 | 44 | 8.0 | 14.5 | 0.00 | 0.00 | 0.00 | 24 | 1011.5 |
| 20260504010603 | 18 | 44 | 8.0 | 14.5 | 0.00 | 0.00 | 0.00 | 24 | 1011.5 |
| 20260504010502 | 18 | 43 | 8.0 | 14.5 | 0.00 | 0.00 | 0.00 | 23 | 1011.4 |
| 20260504010402 | 18 | 41 | 8.0 | 14.5 | 0.00 | 0.00 | 0.00 | 21 | 1011.5 |
| 20260504010303 | 18 | 39 | 8.0 | 14.5 | 0.00 | 0.00 | 0.00 | 23 | 1011.5 |
| 20260504010203 | 18 | 38 | 8.0 | 14.5 | 0.00 | 0.00 | 0.00 | 22 | 1011.5 |
| 20260504010002 | 18 | 34 | 8.0 | 14.5 | 0.00 | 0.00 | 0.00 | 23 | 1011.5 |
| 20260504005902 | 18 | 31 | 8.0 | 14.5 | 0.00 | 0.00 | 0.00 | 22 | 1011.5 |
| 20260504005803 | 18 | 29 | 8.0 | 12.9 | 0.00 | 0.00 | 0.00 | 23 | 1011.6 |
| 20260504005702 | 19 | 29 | 8.0 | 12.9 | 0.00 | 0.00 | 0.00 | 23 | 1011.6 |
| 20260504005602 | 19 | 29 | 6.4 | 12.9 | 0.00 | 0.00 | 0.00 | 24 | 1011.7 |
| 20260504005503 | 19 | 27 | 6.4 | 12.9 | 0.00 | 0.00 | 0.00 | 23 | 1011.6 |
| 20260504005403 | 19 | 26 | 6.4 | 12.9 | 0.00 | 0.00 | 0.00 | 22 | 1011.6 |
| 20260504005304 | 19 | 24 | 6.4 | 12.9 | 0.00 | 0.00 | 0.00 | 22 | 1011.6 |
| 20260504005203 | 19 | 19 | 6.4 | 12.9 | 0.00 | 0.00 | 0.00 | 22 | 1011.6 |
| 20260504005103 | 19 | 16 | 6.4 | 12.9 | 0.00 | 0.00 | 0.00 | 22 | 1011.6 |
| 20260504005002 | 19 | 14 | 6.4 | 12.9 | 0.00 | 0.00 | 0.00 | 23 | 1011.6 |
| 20260504004902 | 19 | 11 | 6.4 | 12.9 | 0.00 | 0.00 | 0.00 | 21 | 1011.6 |
| 20260504004803 | 19 | 7 | 4.8 | 11.3 | 0.00 | 0.00 | 0.00 | 22 | 1011.6 |
| 20260504004702 | 20 | 4 | 4.8 | 11.3 | 0.00 | 0.00 | 0.00 | 22 | 1011.6 |
| 20260504004602 | 20 | 359 | 4.8 | 11.3 | 0.00 | 0.00 | 0.00 | 20 | 1011.7 |
| 20260504004503 | 20 | 1 | 4.8 | 12.9 | 0.00 | 0.00 | 0.00 | 20 | 1011.6 |
| 20260504004403 | 20 | 359 | 4.8 | 12.9 | 0.00 | 0.00 | 0.00 | 20 | 1011.7 |
| 20260504004302 | 20 | 359 | 4.8 | 12.9 | 0.00 | 0.00 | 0.00 | 20 | 1011.7 |
| 20260504004203 | 20 | 2 | 4.8 | 12.9 | 0.00 | 0.00 | 0.00 | 20 | 1011.7 |
| 20260504004103 | 20 | 7 | 6.4 | 12.9 | 0.00 | 0.00 | 0.00 | 20 | 1011.7 |
| 20260504004002 | 20 | 8 | 6.4 | 12.9 | 0.00 | 0.00 | 0.00 | 20 | 1011.8 |
| 20260504003902 | 20 | 6 | 6.4 | 12.9 | 0.00 | 0.00 | 0.00 | 20 | 1011.7 |
| 20260504003803 | 20 | 14 | 6.4 | 12.9 | 0.00 | 0.00 | 0.00 | 20 | 1011.7 |
| 20260504003703 | 20 | 22 | 6.4 | 12.9 | 0.00 | 0.00 | 0.00 | 20 | 1011.8 |
| 20260504003602 | 20 | 25 | 8.0 | 12.9 | 0.00 | 0.00 | 0.00 | 19 | 1011.7 |
| 20260504003502 | 20 | 28 | 8.0 | 12.9 | 0.00 | 0.00 | 0.00 | 21 | 1011.7 |
| 20260504003403 | 20 | 31 | 8.0 | 12.9 | 0.00 | 0.00 | 0.00 | 21 | 1011.7 |
| 20260504003302 | 20 | 31 | 8.0 | 12.9 | 0.00 | 0.00 | 0.00 | 20 | 1011.7 |
| 20260504003202 | 20 | 33 | 6.4 | 12.9 | 0.00 | 0.00 | 0.00 | 20 | 1011.8 |
| 20260504003103 | 20 | 34 | 6.4 | 12.9 | 0.00 | 0.00 | 0.00 | 19 | 1011.8 |
| 20260504003003 | 20 | 34 | 6.4 | 12.9 | 0.00 | 0.00 | 0.00 | 19 | 1011.8 |
| 20260504002902 | 20 | 38 | 6.4 | 12.9 | 0.00 | 0.00 | 0.00 | 19 | 1011.8 |
| 20260504002803 | 20 | 40 | 4.8 | 12.9 | 0.00 | 0.00 | 0.00 | 20 | 1011.8 |
| 20260504002703 | 20 | 40 | 4.8 | 12.9 | 0.00 | 0.00 | 0.00 | 18 | 1011.7 |
| 20260504002602 | 20 | 42 | 3.2 | 12.9 | 0.00 | 0.00 | 0.00 | 19 | 1011.8 |
| 20260504002502 | 20 | 42 | 3.2 | 12.9 | 0.00 | 0.00 | 0.00 | 19 | 1011.8 |
| 20260504002303 | 20 | 43 | 3.2 | 9.7 | 0.00 | 0.00 | 0.00 | 23 | 1011.9 |
| 20260504002202 | 20 | 44 | 3.2 | 9.7 | 0.00 | 0.00 | 0.00 | 21 | 1011.8 |
| 20260504002103 | 20 | 45 | 3.2 | 9.7 | 0.00 | 0.00 | 0.00 | 20 | 1011.8 |
| 20260504002003 | 20 | 46 | 3.2 | 9.7 | 0.00 | 0.00 | 0.00 | 21 | 1011.8 |
| 20260504001902 | 20 | 41 | 3.2 | 9.7 | 0.00 | 0.00 | 0.00 | 20 | 1011.8 |
| 20260504001803 | 21 | 356 | 3.2 | 9.7 | 0.00 | 0.00 | 0.00 | 20 | 1011.8 |
| 20260504001703 | 21 | 284 | 3.2 | 9.7 | 0.00 | 0.00 | 0.00 | 17 | 1011.7 |
| 20260504001602 | 21 | 268 | 3.2 | 9.7 | 0.00 | 0.00 | 0.00 | 15 | 1011.8 |
| 20260504001502 | 21 | 267 | 3.2 | 9.7 | 0.00 | 0.00 | 0.00 | 16 | 1011.8 |
| 20260504001403 | 21 | 267 | 3.2 | 9.7 | 0.00 | 0.00 | 0.00 | 17 | 1011.7 |
| 20260504001302 | 21 | 269 | 3.2 | 9.7 | 0.00 | 0.00 | 0.00 | 18 | 1011.8 |
| 20260504001202 | 21 | 270 | 4.8 | 9.7 | 0.00 | 0.00 | 0.00 | 18 | 1011.8 |
| 20260504001103 | 21 | 273 | 4.8 | 9.7 | 0.00 | 0.00 | 0.00 | 17 | 1011.7 |
| 20260504001003 | 21 | 280 | 4.8 | 9.7 | 0.00 | 0.00 | 0.00 | 16 | 1011.7 |
| 20260504000902 | 21 | 286 | 6.4 | 9.7 | 0.00 | 0.00 | 0.00 | 16 | 1011.7 |
| 20260504000703 | 21 | 300 | 6.4 | 9.7 | 0.00 | 0.00 | 0.00 | 17 | 1011.8 |
| 20260504000602 | 21 | 299 | 6.4 | 9.7 | 0.00 | 0.00 | 0.00 | 17 | 1011.8 |
| 20260504000502 | 21 | 297 | 8.0 | 9.7 | 0.00 | 0.00 | 0.00 | 15 | 1011.7 |
| 20260504000303 | 21 | 288 | 8.0 | 16.1 | 0.00 | 0.00 | 0.00 | 17 | 1011.7 |
| 20260504000204 | 21 | 285 | 6.4 | 16.1 | 0.00 | 0.00 | 0.00 | 15 | 1011.8 |
| 20260504000003 | 20 | 281 | 6.4 | 16.1 | 0.00 | 0.00 | 0.00 | 15 | 1011.8 |
| 20260503235905 | 20 | 277 | 6.4 | 16.1 | 0.00 | 0.00 | 0.00 | 17 | 1011.7 |
| 20260503235804 | 21 | 274 | 6.4 | 16.1 | 0.00 | 0.00 | 0.00 | 17 | 1011.7 |
| 20260503235703 | 21 | 270 | 6.4 | 16.1 | 0.00 | 0.00 | 0.00 | 18 | 1011.8 |
| 20260503235603 | 21 | 268 | 4.8 | 16.1 | 0.00 | 0.00 | 0.00 | 15 | 1011.7 |
| 20260503235502 | 21 | 267 | 4.8 | 16.1 | 0.00 | 0.00 | 0.00 | 15 | 1011.7 |
| 20260503235404 | 21 | 265 | 4.8 | 14.5 | 0.00 | 0.00 | 0.00 | 15 | 1011.8 |
| 20260503235304 | 21 | 264 | 4.8 | 11.3 | 0.00 | 0.00 | 0.00 | 16 | 1011.7 |
| 20260503235202 | 21 | 265 | 6.4 | 11.3 | 0.00 | 0.00 | 0.00 | 17 | 1011.8 |
| 20260503235103 | 21 | 266 | 6.4 | 11.3 | 0.00 | 0.00 | 0.00 | 16 | 1011.8 |
| 20260503235002 | 21 | 265 | 6.4 | 11.3 | 0.00 | 0.00 | 0.00 | 16 | 1011.8 |
| 20260503234903 | 21 | 269 | 8.0 | 11.3 | 0.00 | 0.00 | 0.00 | 16 | 1011.8 |
| 20260503234803 | 21 | 270 | 8.0 | 11.3 | 0.00 | 0.00 | 0.00 | 15 | 1011.7 |
| 20260503234702 | 21 | 271 | 8.0 | 11.3 | 0.00 | 0.00 | 0.00 | 17 | 1011.8 |
| 20260503234603 | 21 | 270 | 9.7 | 11.3 | 0.00 | 0.00 | 0.00 | 19 | 1011.9 |
| 20260503234503 | 21 | 265 | 9.7 | 12.9 | 0.00 | 0.00 | 0.00 | 16 | 1011.8 |
| 20260503234402 | 21 | 258 | 9.7 | 14.5 | 0.00 | 0.00 | 0.00 | 16 | 1011.8 |
| 20260503234302 | 21 | 252 | 9.7 | 16.1 | 0.00 | 0.00 | 0.00 | 16 | 1011.8 |
| 20260503234203 | 21 | 245 | 9.7 | 17.7 | 0.00 | 0.00 | 0.00 | 16 | 1011.9 |
| 20260503234103 | 21 | 239 | 9.7 | 17.7 | 0.00 | 0.00 | 0.00 | 16 | 1011.8 |
| 20260503234002 | 21 | 235 | 9.7 | 17.7 | 0.00 | 0.00 | 0.00 | 16 | 1011.8 |
| 20260503233903 | 21 | 233 | 9.7 | 17.7 | 0.00 | 0.00 | 0.00 | 16 | 1011.9 |
| 20260503233802 | 21 | 230 | 8.0 | 17.7 | 0.00 | 0.00 | 0.00 | 16 | 1011.9 |
| 20260503233702 | 21 | 227 | 8.0 | 17.7 | 0.00 | 0.00 | 0.00 | 16 | 1011.8 |
| 20260503233603 | 21 | 225 | 8.0 | 17.7 | 0.00 | 0.00 | 0.00 | 15 | 1011.8 |
| 20260503233502 | 21 | 225 | 8.0 | 17.7 | 0.00 | 0.00 | 0.00 | 15 | 1011.8 |
| 20260503233403 | 21 | 226 | 8.0 | 17.7 | 0.00 | 0.00 | 0.00 | 15 | 1011.8 |
| 20260503233302 | 21 | 229 | 8.0 | 17.7 | 0.00 | 0.00 | 0.00 | 15 | 1011.8 |
| 20260503233202 | 21 | 234 | 8.0 | 17.7 | 0.00 | 0.00 | 0.00 | 15 | 1011.8 |
| 20260503233103 | 21 | 239 | 8.0 | 17.7 | 0.00 | 0.00 | 0.00 | 15 | 1011.8 |
| 20260503233002 | 21 | 245 | 8.0 | 14.5 | 0.00 | 0.00 | 0.00 | 16 | 1011.9 |
| 20260503232902 | 21 | 250 | 8.0 | 14.5 | 0.00 | 0.00 | 0.00 | 16 | 1011.8 |
| 20260503232803 | 21 | 254 | 8.0 | 14.5 | 0.00 | 0.00 | 0.00 | 16 | 1011.8 |
| 20260503232702 | 21 | 257 | 9.7 | 14.5 | 0.00 | 0.00 | 0.00 | 15 | 1011.8 |
| 20260503232602 | 21 | 263 | 9.7 | 14.5 | 0.00 | 0.00 | 0.00 | 16 | 1011.8 |
| 20260503232503 | 21 | 270 | 11.3 | 12.9 | 0.00 | 0.00 | 0.00 | 16 | 1011.8 |
| 20260503232403 | 21 | 273 | 11.3 | 12.9 | 0.00 | 0.00 | 0.00 | 15 | 1011.8 |
| 20260503232305 | 21 | 277 | 12.9 | 16.1 | 0.00 | 0.00 | 0.00 | 15 | 1011.8 |
| 20260503232203 | 21 | 277 | 12.9 | 16.1 | 0.00 | 0.00 | 0.00 | 16 | 1011.9 |
| 20260503232103 | 21 | 277 | 14.5 | 16.1 | 0.00 | 0.00 | 0.00 | 16 | 1011.8 |
| 20260503232002 | 21 | 278 | 16.1 | 19.3 | 0.00 | 0.00 | 0.00 | 17 | 1011.8 |
| 20260503231902 | 21 | 273 | 16.1 | 25.7 | 0.00 | 0.00 | 0.00 | 16 | 1011.8 |
| 20260503231803 | 21 | 270 | 17.7 | 25.7 | 0.00 | 0.00 | 0.00 | 17 | 1011.8 |
| 20260503231702 | 21 | 267 | 17.7 | 32.2 | 0.00 | 0.00 | 0.00 | 15 | 1011.8 |
| 20260503231602 | 21 | 265 | 17.7 | 32.2 | 0.00 | 0.00 | 0.00 | 16 | 1011.8 |
| 20260503231503 | 21 | 261 | 17.7 | 32.2 | 0.00 | 0.00 | 0.00 | 16 | 1011.8 |
| 20260503231403 | 21 | 256 | 17.7 | 32.2 | 0.00 | 0.00 | 0.00 | 16 | 1011.9 |
| 20260503231203 | 21 | 252 | 17.7 | 32.2 | 0.00 | 0.00 | 0.00 | 15 | 1011.8 |
| 20260503231103 | 21 | 250 | 17.7 | 32.2 | 0.00 | 0.00 | 0.00 | 15 | 1011.8 |
| 20260503231002 | 21 | 248 | 17.7 | 32.2 | 0.00 | 0.00 | 0.00 | 15 | 1011.8 |
| 20260503230902 | 21 | 247 | 17.7 | 32.2 | 0.00 | 0.00 | 0.00 | 15 | 1011.8 |
| 20260503230803 | 21 | 245 | 16.1 | 32.2 | 0.00 | 0.00 | 0.00 | 15 | 1011.9 |
| 20260503230702 | 21 | 243 | 16.1 | 30.6 | 0.00 | 0.00 | 0.00 | 15 | 1011.9 |
| 20260503230602 | 21 | 244 | 16.1 | 30.6 | 0.00 | 0.00 | 0.00 | 15 | 1011.9 |
| 20260503230503 | 21 | 246 | 16.1 | 30.6 | 0.00 | 0.00 | 0.00 | 15 | 1011.9 |
| 20260503230402 | 21 | 249 | 16.1 | 24.1 | 0.00 | 0.00 | 0.00 | 15 | 1012.0 |
| 20260503230302 | 21 | 250 | 16.1 | 24.1 | 0.00 | 0.00 | 0.00 | 16 | 1012.0 |
| 20260503230203 | 21 | 250 | 16.1 | 24.1 | 0.00 | 0.00 | 0.00 | 15 | 1012.0 |
| 20260503230002 | 21 | 253 | 16.1 | 30.6 | 0.00 | 0.00 | 0.00 | 15 | 1012.0 |
| 20260503225902 | 21 | 254 | 16.1 | 30.6 | 0.00 | 0.00 | 0.00 | 16 | 1012.0 |
| 20260503225803 | 21 | 255 | 17.7 | 30.6 | 0.00 | 0.00 | 0.00 | 15 | 1012.0 |
| 20260503225602 | 21 | 254 | 17.7 | 30.6 | 0.00 | 0.00 | 0.00 | 15 | 1012.0 |
| 20260503225503 | 21 | 253 | 17.7 | 30.6 | 0.00 | 0.00 | 0.00 | 15 | 1012.0 |
| 20260503225403 | 21 | 255 | 17.7 | 32.2 | 0.00 | 0.00 | 0.00 | 15 | 1012.0 |
| 20260503225304 | 21 | 255 | 17.7 | 32.2 | 0.00 | 0.00 | 0.00 | 15 | 1012.0 |
| 20260503225203 | 21 | 254 | 17.7 | 32.2 | 0.00 | 0.00 | 0.00 | 15 | 1012.0 |
| 20260503225103 | 21 | 253 | 17.7 | 32.2 | 0.00 | 0.00 | 0.00 | 15 | 1012.1 |
| 20260503225002 | 21 | 251 | 17.7 | 32.2 | 0.00 | 0.00 | 0.00 | 15 | 1012.0 |
| 20260503224903 | 21 | 248 | 19.3 | 32.2 | 0.00 | 0.00 | 0.00 | 15 | 1011.9 |
| 20260503224702 | 21 | 249 | 19.3 | 32.2 | 0.00 | 0.00 | 0.00 | 14 | 1011.9 |
| 20260503224602 | 21 | 248 | 19.3 | 32.2 | 0.00 | 0.00 | 0.00 | 15 | 1012.0 |
| 20260503224503 | 21 | 249 | 19.3 | 32.2 | 0.00 | 0.00 | 0.00 | 15 | 1012.0 |
| 20260503224403 | 21 | 249 | 19.3 | 29.0 | 0.00 | 0.00 | 0.00 | 16 | 1012.1 |
| 20260503224302 | 21 | 248 | 19.3 | 33.8 | 0.00 | 0.00 | 0.00 | 15 | 1012.0 |
| 20260503224103 | 21 | 253 | 19.3 | 35.4 | 0.00 | 0.00 | 0.00 | 15 | 1012.1 |
| 20260503224002 | 21 | 253 | 17.7 | 35.4 | 0.00 | 0.00 | 0.00 | 15 | 1012.0 |
| 20260503223902 | 21 | 255 | 17.7 | 35.4 | 0.00 | 0.00 | 0.00 | 14 | 1012.1 |
| 20260503223803 | 21 | 257 | 17.7 | 35.4 | 0.00 | 0.00 | 0.00 | 15 | 1012.2 |
| 20260503223703 | 21 | 256 | 16.1 | 35.4 | 0.00 | 0.00 | 0.00 | 15 | 1012.2 |
| 20260503223502 | 21 | 256 | 16.1 | 35.4 | 0.00 | 0.00 | 0.00 | 15 | 1012.2 |
| 20260503223403 | 21 | 256 | 16.1 | 35.4 | 0.00 | 0.00 | 0.00 | 15 | 1012.2 |
| 20260503223303 | 21 | 255 | 16.1 | 35.4 | 0.00 | 0.00 | 0.00 | 14 | 1012.2 |
| 20260503223202 | 21 | 255 | 16.1 | 35.4 | 0.00 | 0.00 | 0.00 | 14 | 1012.2 |
| 20260503223103 | 21 | 252 | 16.1 | 29.0 | 0.00 | 0.00 | 0.00 | 15 | 1012.2 |
| 20260503223003 | 21 | 252 | 16.1 | 29.0 | 0.00 | 0.00 | 0.00 | 15 | 1012.2 |
| 20260503222902 | 21 | 253 | 17.7 | 29.0 | 0.00 | 0.00 | 0.00 | 15 | 1012.2 |
| 20260503222803 | 21 | 252 | 17.7 | 29.0 | 0.00 | 0.00 | 0.00 | 15 | 1012.2 |
| 20260503222703 | 21 | 253 | 19.3 | 29.0 | 0.00 | 0.00 | 0.00 | 16 | 1012.2 |
| 20260503222602 | 21 | 249 | 19.3 | 32.2 | 0.00 | 0.00 | 0.00 | 15 | 1012.4 |
| 20260503222503 | 21 | 247 | 19.3 | 32.2 | 0.00 | 0.00 | 0.00 | 15 | 1012.3 |
| 20260503222403 | 21 | 245 | 20.9 | 32.2 | 0.00 | 0.00 | 0.00 | 14 | 1012.2 |
| 20260503222304 | 21 | 245 | 20.9 | 32.2 | 0.00 | 0.00 | 0.00 | 16 | 1012.4 |
| 20260503222202 | 21 | 242 | 20.9 | 32.2 | 0.00 | 0.00 | 0.00 | 16 | 1012.4 |
| 20260503222103 | 21 | 239 | 22.5 | 32.2 | 0.00 | 0.00 | 0.00 | 15 | 1012.3 |
| 20260503222003 | 21 | 237 | 22.5 | 33.8 | 0.00 | 0.00 | 0.00 | 14 | 1012.3 |
| 20260503221802 | 21 | 235 | 22.5 | 33.8 | 0.00 | 0.00 | 0.00 | 14 | 1012.4 |
| 20260503221702 | 21 | 234 | 20.9 | 33.8 | 0.00 | 0.00 | 0.00 | 14 | 1012.4 |
| 20260503221603 | 21 | 236 | 20.9 | 35.4 | 0.00 | 0.00 | 0.00 | 15 | 1012.4 |
| 20260503221502 | 21 | 236 | 20.9 | 35.4 | 0.00 | 0.00 | 0.00 | 15 | 1012.4 |
| 20260503221403 | 21 | 235 | 19.3 | 35.4 | 0.00 | 0.00 | 0.00 | 15 | 1012.5 |
| 20260503221303 | 21 | 234 | 19.3 | 35.4 | 0.00 | 0.00 | 0.00 | 15 | 1012.5 |
| 20260503221202 | 21 | 235 | 19.3 | 35.4 | 0.00 | 0.00 | 0.00 | 14 | 1012.5 |
| 20260503221103 | 21 | 238 | 17.7 | 35.4 | 0.00 | 0.00 | 0.00 | 14 | 1012.5 |
| 20260503221002 | 21 | 240 | 17.7 | 35.4 | 0.00 | 0.00 | 0.00 | 14 | 1012.5 |
| 20260503220903 | 21 | 236 | 17.7 | 35.4 | 0.00 | 0.00 | 0.00 | 15 | 1012.6 |
| 20260503220803 | 21 | 234 | 16.1 | 35.4 | 0.00 | 0.00 | 0.00 | 15 | 1012.6 |
| 20260503220702 | 21 | 229 | 16.1 | 35.4 | 0.00 | 0.00 | 0.00 | 14 | 1012.6 |
| 20260503220603 | 21 | 219 | 16.1 | 30.6 | 0.00 | 0.00 | 0.00 | 15 | 1012.6 |
| 20260503220503 | 21 | 212 | 16.1 | 30.6 | 0.00 | 0.00 | 0.00 | 15 | 1012.6 |
| 20260503220402 | 21 | 210 | 16.1 | 30.6 | 0.00 | 0.00 | 0.00 | 14 | 1012.6 |
| 20260503220302 | 21 | 207 | 16.1 | 30.6 | 0.00 | 0.00 | 0.00 | 15 | 1012.7 |
| 20260503220203 | 21 | 206 | 16.1 | 30.6 | 0.00 | 0.00 | 0.00 | 14 | 1012.7 |
| 20260503220002 | 21 | 194 | 17.7 | 30.6 | 0.00 | 0.00 | 0.00 | 15 | 1012.8 |
| 20260503215903 | 21 | 200 | 17.7 | 30.6 | 0.00 | 0.00 | 0.00 | 15 | 1012.7 |
| 20260503215803 | 21 | 200 | 17.7 | 30.6 | 0.00 | 0.00 | 0.00 | 15 | 1012.7 |
| 20260503215702 | 21 | 206 | 17.7 | 30.6 | 0.00 | 0.00 | 0.00 | 15 | 1012.7 |
| 20260503215603 | 21 | 214 | 17.7 | 30.6 | 0.00 | 0.00 | 0.00 | 14 | 1012.7 |
| 20260503215503 | 21 | 220 | 17.7 | 30.6 | 0.00 | 0.00 | 0.00 | 14 | 1012.8 |
| 20260503215402 | 21 | 222 | 17.7 | 30.6 | 0.00 | 0.00 | 0.00 | 15 | 1012.9 |
| 20260503215304 | 21 | 225 | 17.7 | 30.6 | 0.00 | 0.00 | 0.00 | 15 | 1012.9 |
| 20260503215202 | 21 | 228 | 17.7 | 30.6 | 0.00 | 0.00 | 0.00 | 14 | 1012.8 |
| 20260503215103 | 21 | 231 | 17.7 | 30.6 | 0.00 | 0.00 | 0.00 | 14 | 1012.7 |
| 20260503215002 | 21 | 233 | 17.7 | 30.6 | 0.00 | 0.00 | 0.00 | 15 | 1012.9 |
| 20260503214903 | 21 | 234 | 17.7 | 30.6 | 0.00 | 0.00 | 0.00 | 14 | 1012.9 |
| 20260503214802 | 21 | 234 | 16.1 | 30.6 | 0.00 | 0.00 | 0.00 | 14 | 1012.9 |
| 20260503214703 | 21 | 235 | 16.1 | 30.6 | 0.00 | 0.00 | 0.00 | 15 | 1012.9 |
| 20260503214602 | 21 | 230 | 16.1 | 30.6 | 0.00 | 0.00 | 0.00 | 14 | 1012.8 |
| 20260503214503 | 21 | 224 | 16.1 | 30.6 | 0.00 | 0.00 | 0.00 | 15 | 1012.9 |
| 20260503214402 | 21 | 217 | 16.1 | 30.6 | 0.00 | 0.00 | 0.00 | 14 | 1012.9 |
| 20260503214303 | 21 | 204 | 16.1 | 30.6 | 0.00 | 0.00 | 0.00 | 14 | 1012.9 |
| 20260503214202 | 21 | 191 | 16.1 | 30.6 | 0.00 | 0.00 | 0.00 | 14 | 1012.9 |
| 20260503214103 | 21 | 172 | 16.1 | 30.6 | 0.00 | 0.00 | 0.00 | 14 | 1013.0 |
| 20260503214002 | 21 | 164 | 16.1 | 30.6 | 0.00 | 0.00 | 0.00 | 14 | 1013.0 |
| 20260503213903 | 21 | 162 | 14.5 | 25.7 | 0.00 | 0.00 | 0.00 | 14 | 1013.0 |
| 20260503213802 | 21 | 160 | 14.5 | 25.7 | 0.00 | 0.00 | 0.00 | 15 | 1013.1 |
| 20260503213703 | 21 | 158 | 14.5 | 25.7 | 0.00 | 0.00 | 0.00 | 15 | 1013.1 |
| 20260503213602 | 21 | 157 | 14.5 | 33.8 | 0.00 | 0.00 | 0.00 | 15 | 1013.2 |
| 20260503213502 | 21 | 159 | 14.5 | 38.6 | 0.00 | 0.00 | 0.00 | 15 | 1013.1 |
| 20260503213403 | 21 | 160 | 12.9 | 38.6 | 0.00 | 0.00 | 0.00 | 14 | 1013.1 |
| 20260503213303 | 21 | 159 | 12.9 | 38.6 | 0.00 | 0.00 | 0.00 | 14 | 1013.2 |
| 20260503213202 | 21 | 162 | 11.3 | 38.6 | 0.00 | 0.00 | 0.00 | 14 | 1013.2 |
| 20260503213102 | 21 | 170 | 11.3 | 38.6 | 0.00 | 0.00 | 0.00 | 14 | 1013.1 |
| 20260503213003 | 21 | 167 | 9.7 | 38.6 | 0.00 | 0.00 | 0.00 | 15 | 1013.2 |
| 20260503212903 | 21 | 160 | 9.7 | 38.6 | 0.00 | 0.00 | 0.00 | 15 | 1013.3 |
| 20260503212802 | 21 | 155 | 9.7 | 38.6 | 0.00 | 0.00 | 0.00 | 15 | 1013.3 |
| 20260503212703 | 21 | 149 | 8.0 | 38.6 | 0.00 | 0.00 | 0.00 | 15 | 1013.3 |
| 20260503212603 | 21 | 150 | 8.0 | 38.6 | 0.00 | 0.00 | 0.00 | 14 | 1013.2 |
| 20260503212502 | 21 | 152 | 8.0 | 24.1 | 0.00 | 0.00 | 0.00 | 14 | 1013.4 |
| 20260503212402 | 22 | 156 | 6.4 | 19.3 | 0.00 | 0.00 | 0.00 | 14 | 1013.4 |
| 20260503212304 | 22 | 170 | 6.4 | 17.7 | 0.00 | 0.00 | 0.00 | 14 | 1013.3 |
| 20260503212203 | 22 | 175 | 6.4 | 17.7 | 0.00 | 0.00 | 0.00 | 13 | 1013.2 |
| 20260503212102 | 21 | 174 | 6.4 | 17.7 | 0.00 | 0.00 | 0.00 | 14 | 1013.4 |
| 20260503212003 | 21 | 178 | 6.4 | 17.7 | 0.00 | 0.00 | 0.00 | 13 | 1013.3 |
| 20260503211903 | 21 | 182 | 6.4 | 17.7 | 0.00 | 0.00 | 0.00 | 13 | 1013.2 |
| 20260503211802 | 22 | 173 | 6.4 | 17.7 | 0.00 | 0.00 | 0.00 | 14 | 1013.4 |
| 20260503211703 | 21 | 184 | 6.4 | 12.9 | 0.00 | 0.00 | 0.00 | 14 | 1013.4 |
| 20260503211402 | 21 | 161 | 6.4 | 16.1 | 0.00 | 0.00 | 0.00 | 15 | 1013.5 |
| 20260503211303 | 22 | 152 | 6.4 | 16.1 | 0.00 | 0.00 | 0.00 | 15 | 1013.5 |
| 20260503211203 | 22 | 143 | 6.4 | 16.1 | 0.00 | 0.00 | 0.00 | 13 | 1013.4 |
| 20260503211102 | 22 | 143 | 6.4 | 16.1 | 0.00 | 0.00 | 0.00 | 13 | 1013.5 |
| 20260503211002 | 22 | 153 | 6.4 | 16.1 | 0.00 | 0.00 | 0.00 | 13 | 1013.5 |
| 20260503210903 | 22 | 161 | 6.4 | 16.1 | 0.00 | 0.00 | 0.00 | 14 | 1013.6 |
| 20260503210803 | 22 | 177 | 6.4 | 16.1 | 0.00 | 0.00 | 0.00 | 13 | 1013.5 |
| 20260503210702 | 22 | 187 | 6.4 | 16.1 | 0.00 | 0.00 | 0.00 | 14 | 1013.6 |
| 20260503210503 | 22 | 205 | 4.8 | 16.1 | 0.00 | 0.00 | 0.00 | 14 | 1013.7 |
| 20260503210402 | 22 | 218 | 4.8 | 16.1 | 0.00 | 0.00 | 0.00 | 14 | 1013.6 |
| 20260503210303 | 22 | 231 | 4.8 | 16.1 | 0.00 | 0.00 | 0.00 | 13 | 1013.7 |
| 20260503210202 | 22 | 239 | 4.8 | 16.1 | 0.00 | 0.00 | 0.00 | 14 | 1013.7 |
| 20260503210003 | 22 | 288 | 4.8 | 16.1 | 0.00 | 0.00 | 0.00 | 15 | 1013.8 |
| 20260503205903 | 22 | 344 | 4.8 | 16.1 | 0.00 | 0.00 | 0.00 | 14 | 1013.8 |
| 20260503205802 | 22 | 7 | 4.8 | 16.1 | 0.00 | 0.00 | 0.00 | 14 | 1013.9 |
| 20260503205703 | 22 | 28 | 4.8 | 11.3 | 0.00 | 0.00 | 0.00 | 14 | 1013.8 |
| 20260503205603 | 21 | 31 | 4.8 | 11.3 | 0.00 | 0.00 | 0.00 | 14 | 1013.8 |
| 20260503205502 | 22 | 32 | 4.8 | 11.3 | 0.00 | 0.00 | 0.00 | 13 | 1013.7 |
| 20260503205403 | 22 | 37 | 6.4 | 11.3 | 0.00 | 0.00 | 0.00 | 15 | 1013.9 |
| 20260503205304 | 22 | 60 | 6.4 | 12.9 | 0.00 | 0.00 | 0.00 | 14 | 1013.8 |
| 20260503205202 | 22 | 164 | 6.4 | 17.7 | 0.00 | 0.00 | 0.00 | 14 | 1013.8 |
| 20260503205103 | 22 | 187 | 6.4 | 17.7 | 0.00 | 0.00 | 0.00 | 15 | 1013.9 |
| 20260503204902 | 21 | 199 | 4.8 | 22.5 | 0.00 | 0.00 | 0.00 | 15 | 1013.9 |
| 20260503204803 | 21 | 203 | 4.8 | 22.5 | 0.00 | 0.00 | 0.00 | 13 | 1013.9 |
| 20260503204703 | 21 | 203 | 4.8 | 22.5 | 0.00 | 0.00 | 0.00 | 13 | 1013.9 |
| 20260503204602 | 21 | 204 | 4.8 | 22.5 | 0.00 | 0.00 | 0.00 | 13 | 1014.0 |
| 20260503204502 | 21 | 205 | 4.8 | 22.5 | 0.00 | 0.00 | 0.00 | 14 | 1014.0 |
| 20260503204403 | 21 | 207 | 4.8 | 22.5 | 0.00 | 0.00 | 0.00 | 13 | 1014.0 |
| 20260503204303 | 22 | 209 | 6.4 | 22.5 | 0.00 | 0.00 | 0.00 | 13 | 1014.0 |
| 20260503204203 | 22 | 217 | 6.4 | 22.5 | 0.00 | 0.00 | 0.00 | 15 | 1014.1 |
| 20260503204102 | 22 | 222 | 8.0 | 22.5 | 0.00 | 0.00 | 0.00 | 13 | 1014.0 |
| 20260503204002 | 22 | 234 | 8.0 | 22.5 | 0.00 | 0.00 | 0.00 | 13 | 1014.0 |
| 20260503203902 | 22 | 238 | 9.7 | 11.3 | 0.00 | 0.00 | 0.00 | 15 | 1014.2 |
| 20260503203802 | 21 | 242 | 9.7 | 19.3 | 0.00 | 0.00 | 0.00 | 14 | 1014.1 |
| 20260503203703 | 21 | 221 | 9.7 | 19.3 | 0.00 | 0.00 | 0.00 | 14 | 1014.1 |
| 20260503203603 | 21 | 196 | 9.7 | 19.3 | 0.00 | 0.00 | 0.00 | 14 | 1014.1 |
| 20260503203502 | 21 | 203 | 9.7 | 19.3 | 0.00 | 0.00 | 0.00 | 14 | 1014.1 |
| 20260503203402 | 21 | 206 | 9.7 | 19.3 | 0.00 | 0.00 | 0.00 | 13 | 1014.2 |
| 20260503203303 | 21 | 202 | 9.7 | 19.3 | 0.00 | 0.00 | 0.00 | 13 | 1014.2 |
| 20260503203203 | 21 | 201 | 9.7 | 19.3 | 0.00 | 0.00 | 0.00 | 13 | 1014.2 |
| 20260503203002 | 21 | 192 | 9.7 | 19.3 | 0.00 | 0.00 | 0.00 | 13 | 1014.3 |
| 20260503202903 | 21 | 183 | 9.7 | 19.3 | 0.00 | 0.00 | 0.00 | 13 | 1014.3 |
| 20260503202803 | 21 | 172 | 9.7 | 19.3 | 0.00 | 0.00 | 0.00 | 13 | 1014.3 |
| 20260503202702 | 21 | 174 | 9.7 | 19.3 | 0.00 | 0.00 | 0.00 | 13 | 1014.4 |
| 20260503202603 | 21 | 179 | 9.7 | 19.3 | 0.00 | 0.00 | 0.00 | 14 | 1014.4 |
| 20260503202503 | 21 | 177 | 11.3 | 19.3 | 0.00 | 0.00 | 0.00 | 14 | 1014.4 |
| 20260503202402 | 21 | 178 | 9.7 | 19.3 | 0.00 | 0.00 | 0.00 | 14 | 1014.5 |
| 20260503202304 | 21 | 182 | 9.7 | 19.3 | 0.00 | 0.00 | 0.00 | 14 | 1014.5 |
| 20260503202202 | 21 | 167 | 9.7 | 22.5 | 0.00 | 0.00 | 0.00 | 13 | 1014.4 |
| 20260503202102 | 21 | 159 | 9.7 | 22.5 | 0.00 | 0.00 | 0.00 | 14 | 1014.3 |
| 20260503202003 | 21 | 156 | 8.0 | 22.5 | 0.00 | 0.00 | 0.00 | 14 | 1014.5 |
| 20260503201902 | 21 | 153 | 8.0 | 22.5 | 0.00 | 0.00 | 0.00 | 14 | 1014.5 |
| 20260503201803 | 21 | 141 | 8.0 | 22.5 | 0.00 | 0.00 | 0.00 | 14 | 1014.5 |
| 20260503201703 | 21 | 137 | 6.4 | 22.5 | 0.00 | 0.00 | 0.00 | 16 | 1014.6 |
| 20260503201602 | 21 | 132 | 6.4 | 22.5 | 0.00 | 0.00 | 0.00 | 15 | 1014.6 |
| 20260503201502 | 21 | 119 | 6.4 | 22.5 | 0.00 | 0.00 | 0.00 | 14 | 1014.6 |
| 20260503201403 | 21 | 105 | 6.4 | 22.5 | 0.00 | 0.00 | 0.00 | 15 | 1014.5 |
| 20260503201302 | 21 | 96 | 6.4 | 22.5 | 0.00 | 0.00 | 0.00 | 15 | 1014.6 |
| 20260503201203 | 21 | 94 | 8.0 | 22.5 | 0.00 | 0.00 | 0.00 | 14 | 1014.5 |
| 20260503201002 | 21 | 133 | 8.0 | 17.7 | 0.00 | 0.00 | 0.00 | 14 | 1014.6 |
| 20260503200803 | 21 | 177 | 8.0 | 17.7 | 0.00 | 0.00 | 0.00 | 14 | 1014.6 |
| 20260503200702 | 21 | 191 | 8.0 | 17.7 | 0.00 | 0.00 | 0.00 | 15 | 1014.7 |
| 20260503200603 | 21 | 207 | 8.0 | 17.7 | 0.00 | 0.00 | 0.00 | 16 | 1014.7 |
| 20260503200503 | 20 | 209 | 8.0 | 17.7 | 0.00 | 0.00 | 0.00 | 14 | 1014.7 |
| 20260503200402 | 20 | 214 | 8.0 | 17.7 | 0.00 | 0.00 | 0.00 | 14 | 1014.7 |
| 20260503200303 | 20 | 222 | 8.0 | 17.7 | 0.00 | 0.00 | 0.00 | 14 | 1014.6 |
| 20260503200203 | 21 | 222 | 8.0 | 17.7 | 0.00 | 0.00 | 0.00 | 13 | 1014.7 |
| 20260503200003 | 21 | 223 | 8.0 | 17.7 | 0.00 | 0.00 | 0.00 | 14 | 1014.8 |
| 20260503195902 | 21 | 236 | 8.0 | 17.7 | 0.00 | 0.00 | 0.00 | 15 | 1014.9 |
| 20260503195803 | 20 | 257 | 9.7 | 17.7 | 0.00 | 0.00 | 0.00 | 15 | 1014.9 |
| 20260503195703 | 20 | 263 | 9.7 | 17.7 | 0.00 | 0.00 | 0.00 | 15 | 1014.9 |
| 20260503195602 | 20 | 266 | 9.7 | 12.9 | 0.00 | 0.00 | 0.00 | 15 | 1014.9 |
| 20260503195502 | 20 | 267 | 11.3 | 12.9 | 0.00 | 0.00 | 0.00 | 15 | 1015.0 |
| 20260503195403 | 20 | 260 | 11.3 | 19.3 | 0.00 | 0.00 | 0.00 | 16 | 1015.0 |
| 20260503195304 | 20 | 251 | 11.3 | 20.9 | 0.00 | 0.00 | 0.00 | 16 | 1015.0 |
| 20260503195203 | 20 | 250 | 12.9 | 20.9 | 0.00 | 0.00 | 0.00 | 16 | 1015.1 |
| 20260503195102 | 20 | 254 | 12.9 | 20.9 | 0.00 | 0.00 | 0.00 | 16 | 1015.0 |
| 20260503195002 | 20 | 253 | 12.9 | 20.9 | 0.00 | 0.00 | 0.00 | 16 | 1015.0 |
| 20260503194903 | 20 | 253 | 12.9 | 20.9 | 0.00 | 0.00 | 0.00 | 16 | 1015.1 |
| 20260503194802 | 20 | 250 | 12.9 | 20.9 | 0.00 | 0.00 | 0.00 | 18 | 1015.1 |
| 20260503194603 | 20 | 249 | 12.9 | 20.9 | 0.00 | 0.00 | 0.00 | 16 | 1015.1 |
| 20260503194503 | 20 | 248 | 11.3 | 20.9 | 0.00 | 0.00 | 0.00 | 16 | 1015.1 |
| 20260503194402 | 20 | 248 | 11.3 | 20.9 | 0.00 | 0.00 | 0.00 | 15 | 1015.2 |
| 20260503194303 | 20 | 248 | 11.3 | 20.9 | 0.00 | 0.00 | 0.00 | 16 | 1015.2 |
| 20260503194203 | 20 | 244 | 9.7 | 20.9 | 0.00 | 0.00 | 0.00 | 16 | 1015.2 |
| 20260503194102 | 20 | 240 | 9.7 | 20.9 | 0.00 | 0.00 | 0.00 | 15 | 1015.2 |
| 20260503194003 | 20 | 238 | 9.7 | 20.9 | 0.00 | 0.00 | 0.00 | 16 | 1015.3 |
| 20260503193903 | 20 | 240 | 8.0 | 20.9 | 0.00 | 0.00 | 0.00 | 15 | 1015.3 |
| 20260503193802 | 20 | 241 | 8.0 | 20.9 | 0.00 | 0.00 | 0.00 | 16 | 1015.3 |
| 20260503193702 | 20 | 241 | 8.0 | 20.9 | 0.00 | 0.00 | 0.00 | 17 | 1015.3 |
| 20260503193603 | 20 | 239 | 6.4 | 20.9 | 0.00 | 0.00 | 0.00 | 16 | 1015.4 |
| 20260503193503 | 20 | 238 | 6.4 | 20.9 | 0.00 | 0.00 | 0.00 | 15 | 1015.4 |
| 20260503193203 | 20 | 251 | 8.0 | 19.3 | 0.00 | 0.00 | 0.00 | 17 | 1015.6 |
| 20260503192503 | 20 | 247 | 8.0 | 17.7 | 0.00 | 0.00 | 0.00 | 17 | 1015.7 |
| 20260503192403 | 20 | 241 | 8.0 | 19.3 | 0.00 | 0.00 | 0.00 | 17 | 1015.7 |